Weather History for KORD - March, 2012

Change the Weather History Date:

Friday, March 9, 2012

  Actual Average Record
Temperature  
Mean Temperature 34 °F 35 °F  
Max Temperature 40 °F 44 °F 69 °F (1974)
Min Temperature 28 °F 27 °F 5 °F (1984)
Degree Days  
Heating Degree Days 31 30  
Month to date heating degree days 224 280  
Since 1 July heating degree days 4197 5014  
Cooling Degree Days 0 0  
Month to date cooling degree days 0 0  
Year to date cooling degree days 0 0  
Moisture  
Dew Point 11 °F    
Average Humidity 43    
Maximum Humidity 63    
Minimum Humidity 23    
Precipitation  
Precipitation 0.00 in 0.08 in 1.60 in (1998)
Month to date precipitation 0.47 0.70  
Year to date precipitation 3.97 4.22  
Snow  
Snow 0.00 in 0.30 in 6.50 in (1998)
Month to date snowfall 0.3 2.2  
Since 1 July snowfall 19.8 32.0  
Snow Depth 0.00 in    
Sea Level Pressure  
Sea Level Pressure 30.46 in    
Wind  
Wind Speed 13 mph (NNW)    
Max Wind Speed 24 mph    
Max Gust Speed 31 mph    
Visibility 10 miles    
Events      
T = Trace of Precipitation, MM = Missing Value Source: NWS Daily Summary

Daily Weather History Graph

Daily Weather History Graph

Search for Another Location

Airport or City:

Trip Planner

Search our weather history database for the weather conditions in past years. The results will help you decide how hot, cold, wet, or windy it might be!

Date:

Astronomy

Mar. 09, 2012 Rise Set
Actual Time 6:12 AM CST 5:51 PM CST
Civil Twilight 5:45 AM CST 6:19 PM CST
Nautical Twilight 5:12 AM CST 6:52 PM CST
Astronomical Twilight 4:40 AM CST 7:24 PM CST
Moon 7:54 PM CST (3/9) 6:28 AM CST (3/9)
Length of Visible Light 12h 34m
Length of Day
11h 39m
Full, 97% of the Moon is Illuminated
Mar 9
Full
Mar 14
Last Quarter
Mar 22
New
Mar 30
First Quarter
Apr 6
Full

Hourly Weather History & Observations

Time (CST) Temp. Windchill Dew Point Humidity Pressure Visibility Wind Dir Wind Speed Gust Speed Precip Events Conditions
12:51 AM 37.0 °F 28.1 °F 24.1 °F 59% 30.20 in 10.0 mi West 15.0 mph 21.9 mph N/A   Partly Cloudy
1:51 AM 37.9 °F 28.9 °F 25.0 °F 60% 30.24 in 10.0 mi West 16.1 mph 23.0 mph N/A   Mostly Cloudy
2:51 AM 36.0 °F 27.5 °F 16.0 °F 44% 30.27 in 10.0 mi NW 12.7 mph - N/A   Partly Cloudy
3:51 AM 33.1 °F 23.9 °F 12.0 °F 42% 30.32 in 10.0 mi NW 12.7 mph - N/A   Clear
4:51 AM 32.0 °F 23.0 °F 10.0 °F 40% 30.35 in 10.0 mi NW 11.5 mph 19.6 mph N/A   Clear
5:51 AM 30.9 °F 21.2 °F 9.0 °F 40% 30.39 in 10.0 mi NW 12.7 mph - N/A   Clear
6:51 AM 30.0 °F 19.1 °F 6.1 °F 36% 30.43 in 10.0 mi NW 15.0 mph - N/A   Clear
7:51 AM 30.9 °F 18.4 °F 7.0 °F 37% 30.46 in 10.0 mi NW 20.7 mph 27.6 mph N/A   Clear
8:51 AM 32.0 °F 20.5 °F 6.1 °F 34% 30.49 in 10.0 mi NNW 18.4 mph 27.6 mph N/A   Partly Cloudy
9:51 AM 33.1 °F 21.2 °F 9.0 °F 37% 30.51 in 10.0 mi NNW 20.7 mph 25.3 mph N/A   Partly Cloudy
10:51 AM 35.1 °F 24.8 °F 8.1 °F 33% 30.53 in 10.0 mi NNW 17.3 mph 23.0 mph N/A   Partly Cloudy
11:51 AM 36.0 °F 26.7 °F 8.1 °F 31% 30.53 in 10.0 mi NW 15.0 mph - N/A   Partly Cloudy
12:51 PM 37.9 °F 28.5 °F 7.0 °F 28% 30.53 in 10.0 mi NNW 17.3 mph 24.2 mph N/A   Clear
1:51 PM 39.0 °F 31.8 °F 6.1 °F 26% 30.52 in 10.0 mi NNW 11.5 mph 19.6 mph N/A   Partly Cloudy
2:51 PM 39.0 °F 30.6 °F 6.1 °F 26% 30.53 in 10.0 mi NNW 15.0 mph 19.6 mph N/A   Clear
3:51 PM 39.0 °F 33.4 °F 5.0 °F 24% 30.52 in 10.0 mi North 8.1 mph - N/A   Clear
4:51 PM 39.0 °F 32.8 °F 7.0 °F 27% 30.52 in 10.0 mi North 9.2 mph - N/A   Partly Cloudy
5:51 PM 36.0 °F 31.1 °F 7.0 °F 30% 30.51 in 10.0 mi Variable 5.8 mph - N/A   Scattered Clouds
6:51 PM 35.1 °F 31.0 °F 8.1 °F 33% 30.54 in 10.0 mi North 4.6 mph - N/A   Partly Cloudy
7:51 PM 33.8 °F 27.0 °F 15.8 °F 48% 30.52 in 10.0 mi East 8.1 mph - N/A   Clear
8:51 PM 33.1 °F 27.7 °F 15.1 °F 48% 30.55 in 10.0 mi East 5.8 mph - N/A   Partly Cloudy
9:51 PM 33.1 °F 24.4 °F 16.0 °F 50% 30.53 in 10.0 mi ESE 11.5 mph - N/A   Partly Cloudy
10:51 PM 28.9 °F 21.9 °F 17.1 °F 61% 30.53 in 10.0 mi SSE 6.9 mph - N/A   Partly Cloudy
11:51 PM 28.4 °F 20.4 °F 17.6 °F 64% 30.50 in 10.0 mi SSE 8.1 mph - N/A   Clear